Location: Newark
(46.7000°N, 60.6000°W)
Time: 05:35:59
(UTC+00:00)

Transit 2A Rocket - Pass Details

Date: 05 November 2020
Orbit: 588 x 914 km, 66.7° (Epoch: 29 November)

Event Time Altitude Azimuth Distance (km) Brightness Sun altitude
Rises 20:30:40 0° 324° (NW) 3,265 8.4 0.7°
Reaches altitude 10° 20:33:12 10° 321° (NW) 2,279 7.7 0.3°
Maximum altitude 20:38:18 64° 241° (WSW) 774 5.5 -0.5°
Drops below altitude 10° 20:42:55 10° 160° (SSE) 2,062 7.3 -1.2°
Sets 20:45:07 0° 158° (SSE) 2,927 8.0 -1.6°
